Lid_Strength_Index
10 9 8 7 5 2 2 2 2 3 3 4 5 6 7 7 7 8 9 10 11 12 12 13 13 13 14 14 14 14 14 13 14 16 15 16 16 18 17 17 16 17 17
11 10 9 8 6 4 3 2 4 5 6 7 7 7 8 9 9 10 11 12 12 14 14 14 15 15 15 15 16 16 16 16 16 17 17 17 17 18 18 18 17 17 17
11 11 10 9 7 6 5 3 6 7 7 7 8 9 10 10 11 12 13 13 14 15 15 16 16 16 17 17 17 17 17 17 17 17 18 17 17 18 18 18 18 18 17
10 11 11 11 10 7 7 7 7 7 7 8 8 9 10 11 12 13 14 15 16 16 16 16 17 17 17 17 17 17 17 17 17 18 18 18 18 18 18 19 19 18 18
10 10 12 12 12 10 10 10 12 12 11 9 12 13 13 13 14 15 16 17 17 17 17 17 17 17 16 16 17 17 17 17 17 18 19 19 19 19 19 18 19 19 18
10 10 11 12 13 13 13 13 13 14 15 15 15 15 15 15 15 15 16 17 17 18 18 17 16 16 16 15 15 15 16 17 18 18 19 19 19 19 19 20 20 20 21
11 11 12 12 13 14 14 14 14 15 15 16 16 15 16 16 15 15 16 17 18 18 18 18 17 17 16 17 16 16 16 16 16 18 19 19 20 20 20 20 20 21 21
11 12 12 12 13 13 14 14 14 14 15 15 15 16 16 16 15 15 16 17 17 17 17 18 18 18 18 18 19 19 19 19 18 18 19 19 19 19 19 19 20 20 19
11 11 12 12 13 13 14 14 14 14 15 15 16 16 16 16 15 15 17 18 17 18 18 18 18 18 17 17 19 20 20 19 15 16 16 16 16 17 18 20 22 24 25
11 11 11 12 13 13 14 14 14 14 15 15 15 15 15 16 14 15 16 17 18 19 18 18 17 18 16 16 18 19 21 20 19 19 19 19 19 19 18 20 21 24 25
11 11 12 12 13 13 13 14 14 15 15 16 16 15 16 16 15 15 15 17 18 19 19 18 17 16 16 17 17 19 19 18 18 20 20 20 20 21 21 21 21 22 24
12 12 13 13 13 14 15 14 15 15 16 16 17 17 16 15 15 15 15 16 16 18 18 17 17 15 16 16 17 17 17 19 21 22 22 22 23 23 23 22 22 22 22
13 13 14 14 13 14 14 15 15 15 16 16 17 17 17 17 15 14 14 14 15 18 17 16 15 15 15 16 16 17 19 21 22 23 23 24 23 23 23 23 23 24 23
14 14 14 15 15 15 14 14 15 16 16 16 16 18 18 17 17 16 16 16 16 17 16 18 17 17 17 18 19 20 21 22 22 23 24 24 23 24 25 24 26 26 29
14 15 15 15 15 15 15 15 16 16 15 16 16 17 18 18 17 16 16 18 17 17 18 19 20 21 22 22 23 23 23 23 24 24 25 25 25 25 25 25 26 30 32
16 16 17 17 17 17 17 17 14 14 13 14 14 16 17 14 13 13 14 14 14 15 22 23 23 22 23 23 24 25 25 25 25 25 27 27 28 27 28 28 28 32 33
16 18 18 18 19 19 19 18 19 18 13 13 13 14 14 13 12 12 13 13 14 18 26 25 24 23 23 24 25 26 26 26 26 28 28 28 28 29 31 31 30 30 33
23 22 21 22 22 23 23 23 21 21 21 22 13 13 12 12 12 12 13 14 19 24 26 26 25 25 26 27 28 29 29 29 30 30 32 33 34 34 35 34 33 35 35
23 23 23 24 24 23 24 24 24 25 23 23 23 16 17 12 12 12 14 24 26 26 27 27 27 27 27 28 30 30 29 29 30 32 34 36 36 37 37 35 34 32 32
25 23 24 23 25 25 24 24 26 27 25 24 23 20 22 16 16 19 21 21 22 23 25 27 29 30 31 31 32 31 32 32 32 31 36 37 38 37 36 37 37 35 36
24 25 24 25 24 25 26 26 26 26 25 23 23 23 17 16 18 22 23 25 25 26 29 29 32 33 33 32 32 32 31 31 35 36 38 39 40 38 38 35 36 37 36
22 23 25 24 26 25 25 24 25 25 26 26 27 25 14 25 23 21 22 24 28 31 29 29 31 30 30 29 29 31 31 32 35 38 39 37 38 39 39 37 37 37 36
24 25 26 28 26 27 27 28 27 26 27 27 26 26 25 19 20 22 24 29 32 32 33 30 30 32 30 29 29 30 31 34 35 37 38 38 38 37 38 37 36 37 36
22 23 23 24 26 26 25 26 27 26 25 25 25 25 24 25 22 25 29 31 32 32 31 29 29 28 29 31 32 36 37 39 40 38 38 38 37 35 37 37 36 34 29
22 24 24 25 26 25 28 28 26 25 26 26 27 29 30 28 28 29 30 30 30 31 31 30 30 30 30 31 34 35 35 29 32 34 37 38 37 36 35 33 29 27 27
23 24 25 27 27 26 25 26 26 27 27 27 27 27 28 28 29 29 29 30 30 29 30 31 32 34 35 36 35 32 30 26 28 29 32 33 32 30 31 28 27 25 25